Location: East Horndon
(51.5667°N, 0.3500°E)
Time: 06:36:34
(UTC+00:00)

In-Cosmos 22 Rocket - Pass Details

Date: 08 November 2025
Orbit: 789 x 886 km, 81.2° (Epoch: 11 December)

Event Time Altitude Azimuth Distance (km) Brightness Sun altitude
Rises 06:14:38 0° 192° (SSW) 3,468 7.5 -8.1°
Reaches altitude 10° 06:17:03 10° 193° (SSW) 2,540 6.8 -7.7°
Maximum altitude 06:22:52 85° 283° (WNW) 898 4.3 -6.9°
Drops below altitude 10° 06:28:44 10° 12° (NNE) 2,556 6.6 -6.0°
Sets 06:31:11 0° 13° (NNE) 3,493 7.3 -5.7°
